Simultaneous Nadir Overpasses (SNOs) Predictions

Prediction of SNOs between AQUA and NPP Satellite Orbit:

Table of predicted SNOs for the next 14.0 days since TLE Epoch: 6/8/2013
Index Date (AQUA) Time (AQUA) Lat,Lon (AQUA) SZA (AQUA ) Date (NPP) Time (NPP) Lat,Lon (NPP) SZA (NPP ) Distance(km) Time Diff (sec)
1 06/09/2013 06:22:19 75.53, -37.87 75.27 06/09/2013 06:21:25 75.53, -37.87 75.31 0.17 54
2 06/09/2013 07:11:26 -76.53, 132.85 105.91 06/09/2013 07:11:49 -76.53, 132.87 105.94 0.50 23
3 06/11/2013 22:38:38 75.89, 79.08 74.68 06/11/2013 22:38:12 75.89, 79.09 74.70 0.41 26
4 06/11/2013 23:27:45 -76.87,-110.04 106.50 06/11/2013 23:28:36 -76.88,-109.98 106.55 1.50 51
5 06/14/2013 14:06:18 -73.85, 22.06 103.12 06/14/2013 14:05:04 -73.89, 21.86 103.04 7.67 74
6 06/14/2013 14:54:54 76.33,-163.65 74.05 06/14/2013 14:54:56 76.34,-163.56 74.02 2.39 2
7 06/14/2013 15:39:55 -80.43, 90.81 121.12 06/14/2013 15:41:08 -79.71, 88.28 121.44 92.98 73
8 06/17/2013 06:22:11 -75.52, 142.12 105.06 06/17/2013 06:21:25 -75.51, 142.11 105.02 0.20 46
9 06/17/2013 07:11:16 76.51, -47.15 73.77 06/17/2013 07:11:47 76.51, -47.16 73.74 0.22 31
10 06/19/2013 22:38:31 -75.79,-101.20 105.40 06/19/2013 22:38:14 -75.78,-101.25 105.37 1.37 17




NCC Satellite Simultaneous Nadir Overpasses (SNOs) Prediction Service
